DELTA 1 DEB, 42573

Orbit data source: Space-Track

DELTA 1 DEB, 42573 is space debris in SSO originally from a launch on Tue, 06 Nov 1973 UTC launched from the Air Force Western Test Range (AFWTR). Debris objects in space refer to the collection of defunct objects orbiting the Earth. Examples of debris include non-operational satellites, rocket bodies, and fragments generated from explosions, collisions, or faulty payload assembly.

Loading next visibility...
Identifier
42573, 1973-086HM
Orbit
SSO
Country
Flag of USUS
Related business
Manufacturer
Unknown
Mission
Spacecraft
Bus & Motor
Unknown
Mass
Unknown
Launch date (UTC)
1973-11-06 (53 years ago)
Launch vehicle
Unknown
Launch site
Air Force Western Test Range (AFWTR)
Object type
Payload
Rocket body
Debris
Shape & HBR
Unknown shape, 1.1 m
Radar Cross Section
Medium (>0.1 m² and <1 m²)

Expand to show TLE details & history
Last TLE update: 13 hours ago

TLE from 13 hours ago
0 DELTA 1 DEB
1 42573U 73086HM  26263.25773953  .00000030  00000-0  51806-3 0  9991
2 42573 101.9192   4.8788 0040989 175.8078 210.8704 12.46304460583241
Epoch: 2026-09-20T06:11Z
TLE epoch observation values (Epoch: 2026-09-20T06:11:08.695Z)
Latitude
25.85776°
Longitude
-92.90505°
Altitude
1,510.506 km
Speed
7.099 km/s
True Right ascension
23h 56m 08s
True Declination
25° 44' 09"
Sunlit
Object was in full shadow at epoch
Visualization orbit readout
Latitude
Unknown
Longitude
Unknown
Altitude
Unknown
Speed
Unknown
Apparent Right ascension
Unknown
Apparent Declination
Unknown
Sunlit
N/A
Visualization observer readout
Local Sidereal Time
11:56:57
Azimuth
Unknown
Elevation
Unknown
Doppler factor
Unknown
Orbital elements
Apogee altitude
1,509.752 km
Perigee altitude
1,445.353 km
Semi-major axis
7,855.689 km
Eccentricity
0.0041
Inclination
101.9192°
RAAN
4.8788°
Arg. of periapsis
175.8078°
True anomaly
210.63045°
Mean anomaly
210.8704°
Eccentric anomaly
210.75032°
Mean motion
3.11721 °/min
Orbital period
115.49 mins
BSTAR
0.00051806
Loading maneuver chart data...
Computing Atmospheric mass density...
Loading historical data...
Loading historical data...
Loading historical data...
Loading historical data...
Loading historical data...
Loading historical data...
Loading historical data...

Documentation

Showing up to 5 results
|